TimeAKDT,TemperatureF,Dew PointF,Humidity,Sea Level PressureIn,VisibilityMPH,Wind Direction,Wind SpeedMPH,Gust SpeedMPH,PrecipitationIn,Events,Conditions,WindDirDegrees,DateUTC
12:38 AM,42.8,37.4,81,29.58,5.0,Variable,6.9,-,0.06,Rain,Rain,0,2013-04-09 08:38:00
12:53 AM,43.0,37.0,80,29.56,5.0,SSE,8.1,19.6,0.08,Rain,Rain,160,2013-04-09 08:53:00
1:53 AM,43.0,37.0,80,29.47,5.0,SSE,9.2,23.0,0.11,Rain,Rain,150,2013-04-09 09:53:00
2:53 AM,43.0,36.0,76,29.41,10.0,South,13.8,25.3,0.03,Rain,Light Rain,180,2013-04-09 10:53:00
3:43 AM,42.8,37.4,81,29.39,5.0,SSE,11.5,27.6,0.03,Rain,Light Rain,160,2013-04-09 11:43:00
3:53 AM,43.0,37.9,82,29.39,5.0,Variable,5.8,23.0,0.03,Rain,Light Rain,0,2013-04-09 11:53:00
4:53 AM,44.1,39.9,85,29.38,4.0,Variable,5.8,-,0.03,Rain,Light Rain,0,2013-04-09 12:53:00
5:53 AM,46.0,42.1,86,29.34,8.0,South,11.5,19.6,0.01,Rain,Light Rain,180,2013-04-09 13:53:00
6:53 AM,46.0,43.0,89,29.34,3.0,South,10.4,-,0.03,Rain,Light Rain,170,2013-04-09 14:53:00
7:00 AM,46.4,42.8,87,29.34,2.5,Variable,5.8,-,0.00,,Overcast,0,2013-04-09 15:00:00
7:09 AM,46.4,42.8,87,29.34,1.5,SSE,10.4,18.4,0.02,Rain,Light Rain,160,2013-04-09 15:09:00
7:17 AM,46.4,42.8,87,29.34,3.0,Variable,6.9,18.4,0.03,Rain,Light Rain,0,2013-04-09 15:17:00
7:36 AM,46.4,42.8,87,29.34,2.0,South,10.4,33.4,0.05,Rain,Light Rain,170,2013-04-09 15:36:00
8:53 AM,46.9,42.1,83,29.34,6.0,South,12.7,23.0,0.03,Rain,Light Rain,180,2013-04-09 16:53:00
9:00 AM,46.4,42.8,87,29.34,4.0,South,11.5,24.2,0.01,,Haze,170,2013-04-09 17:00:00
9:43 AM,46.4,42.8,87,29.38,2.5,South,11.5,19.6,0.07,Rain,Rain,190,2013-04-09 17:43:00
9:53 AM,45.0,42.1,90,29.39,2.0,SSW,10.4,16.1,0.09,Rain,Rain,200,2013-04-09 17:53:00
10:24 AM,44.6,42.8,93,29.44,1.8,SSW,15.0,25.3,0.08,Rain,Rain,210,2013-04-09 18:24:00
10:32 AM,44.6,42.8,93,29.45,3.0,SSW,13.8,26.5,0.09,Rain,Rain,200,2013-04-09 18:32:00
10:53 AM,44.1,41.0,89,29.49,5.0,SSW,11.5,29.9,0.12,Rain,Light Rain,200,2013-04-09 18:53:00
11:08 AM,44.6,42.8,93,29.50,4.0,SSW,13.8,23.0,0.02,Rain,Light Rain,200,2013-04-09 19:08:00
11:53 AM,43.0,41.0,93,29.57,4.0,SSW,9.2,21.9,0.07,Rain,Rain,210,2013-04-09 19:53:00
12:53 PM,43.0,42.1,97,29.62,6.0,SSW,10.4,20.7,0.04,Rain,Light Rain,200,2013-04-09 20:53:00
1:02 PM,42.8,41.0,93,29.63,4.0,SSW,11.5,20.7,0.00,Rain,Light Rain,200,2013-04-09 21:02:00
1:53 PM,44.1,39.9,85,29.68,10.0,SSW,11.5,19.6,0.00,,Overcast,200,2013-04-09 21:53:00
2:11 PM,44.6,39.2,81,29.68,10.0,SSW,8.1,18.4,0.00,Rain,Light Rain,200,2013-04-09 22:11:00
2:50 PM,44.6,41.0,87,29.70,10.0,SSW,10.4,18.4,0.00,Rain,Light Rain,200,2013-04-09 22:50:00
2:53 PM,44.1,39.9,85,29.71,10.0,SSW,9.2,18.4,0.00,Rain,Light Rain,200,2013-04-09 22:53:00
3:07 PM,44.6,39.2,81,29.71,10.0,South,9.2,-,0.01,Rain,Light Rain,190,2013-04-09 23:07:00
3:30 PM,44.6,39.2,81,29.71,10.0,SSW,9.2,16.1,0.01,,Overcast,200,2013-04-09 23:30:00
4:53 PM,43.0,39.0,86,29.75,10.0,Variable,4.6,-,0.02,,Overcast,0,2013-04-10 00:53:00
5:11 PM,42.8,39.2,87,29.75,8.0,SW,8.1,-,0.00,Rain,Light Rain,220,2013-04-10 01:11:00
5:53 PM,42.1,37.9,85,29.76,10.0,Variable,4.6,-,0.00,Rain,Light Rain,0,2013-04-10 01:53:00
6:08 PM,42.8,39.2,87,29.77,10.0,West,4.6,-,0.00,,Overcast,260,2013-04-10 02:08:00
6:51 PM,41.0,37.4,87,29.77,10.0,WSW,6.9,-,0.01,Rain,Light Rain,240,2013-04-10 02:51:00
6:53 PM,41.0,37.9,89,29.78,10.0,Variable,4.6,-,0.01,Rain,Light Rain,0,2013-04-10 02:53:00
7:18 PM,39.2,37.4,93,29.78,10.0,Calm,Calm,-,N/A,,Overcast,0,2013-04-10 03:18:00
7:53 PM,39.0,37.0,93,29.80,7.0,Calm,Calm,-,0.01,Rain,Light Rain,0,2013-04-10 03:53:00
8:15 PM,39.2,37.4,93,29.80,10.0,Calm,Calm,-,0.00,,Overcast,0,2013-04-10 04:15:00
8:53 PM,39.0,37.0,93,29.82,10.0,SSE,3.5,-,0.00,,Overcast,160,2013-04-10 04:53:00
9:05 PM,39.2,35.6,87,29.82,10.0,West,4.6,-,N/A,,Overcast,280,2013-04-10 05:05:00
9:12 PM,39.2,35.6,87,29.82,10.0,West,4.6,-,N/A,,Overcast,270,2013-04-10 05:12:00
9:53 PM,37.9,36.0,93,29.84,10.0,Calm,Calm,-,N/A,,Overcast,0,2013-04-10 05:53:00
10:53 PM,37.9,36.0,93,29.85,10.0,South,3.5,-,N/A,,Overcast,180,2013-04-10 06:53:00
11:53 PM,37.0,34.0,89,29.86,10.0,Calm,Calm,-,N/A,,Overcast,0,2013-04-10 07:53:00